Regional Weather Roundup
Issued by NWS

Home | Current Version | Previous Version | Graphics & Text | Print | Product List | Glossary On
Versions: 1 2 3 4 5 6 7 8 9 10 11 12 13 14 15 16 17 18 19 20 21 22 23 24 25 26 27 28 29 30 31 32 33 34 35 36 37 38 39 40 41 42 43 44 45 46 47 48 49 50
000
ASUS43 KDMX 181301
RWRIA

WEATHER ROUNDUP FOR IOWA
NATIONAL WEATHER SERVICE DES MOINES IA
700 AM CST MON DEC 18 2017

NOTE: "FAIR" INDICATES FEW OR NO CLOUDS BELOW 12,000 FEET WITH NO
SIGNIFICANT WEATHER AND/OR OBSTRUCTIONS TO VISIBILITY.

* - THESE STATIONS ARE NOT NWS STATIONS...THUS NOT UNDER NWS
QUALITY CONTROL.  THEY ALSO DO NOT REPORT WEATHER SUCH
AS PRECIPITATION OR FOG.

IAZ001>003-012>014-020>022-031>034-043>046-181400-
   NORTHWEST IOWA

CITY           SKY/WX    TMP DP  RH WIND       PRES   REMARKS
CARROLL *      CLOUDY    27  25  93 S12       29.89F FOG     WCI  16
CHEROKEE *     CLOUDY    22  22 100 CALM      29.87R FOG
DENISON *      CLOUDY    27  27 100 SW8       29.90F WCI  18
LE MARS *      CLOUDY    23  23 100 S6        29.86R WCI  16
ORANGE CITY *  CLOUDY    25  23  93 S8        29.84R WCI  16
SHELDON *      CLOUDY    23  23 100 S6        29.82S WCI  16
SIOUX CITY     CLOUDY    21  20  96 E6        29.88R WCI  13
SPENCER        CLOUDY    23  21  92 S7        29.84R WCI  15
STORM LAKE *   CLOUDY    21  21 100 S9        29.85S FOG     WCI  11
$$

IAZ055>058-069>071-079>083-090>094-181400-
   SOUTHWEST IOWA

CITY           SKY/WX    TMP DP  RH WIND       PRES   REMARKS
ATLANTIC *     FOG       28  28 100 S9        29.94F VSB 1/4 WCI  20
AUDUBON *      CLOUDY    25  23  93 S6        29.91F FOG     WCI  18
CLARINDA *     FOG       30  30 100 S6        30.00F VSB 1/4 WCI  24
COUNCIL BLFS * CLOUDY    30  30 100 S10       29.92F WCI  21
CRESTON *      FOG       30  30 100 SW12      29.97F VSB 1/4 WCI  21
HARLAN  *      FOG       23  25 100 S9        29.95F VSB 1/4 WCI  13
LAMONI         FOG       31  30  96 SW8       29.99S VSB 1/4 WCI  23
RED OAK *      CLOUDY    27  27 100 S7        29.96F FOG     WCI  19
SHENANDOAH *   CLEAR     28  28 100 S6        29.98F WCI  22
$$

IAZ047>049-059>061-072>074-084-181400-
   CENTRAL IOWA

CITY           SKY/WX    TMP DP  RH WIND       PRES   REMARKS
AMES           CLOUDY    22  21  96 S5        29.94F FOG     WCI  16
ANKENY *       FOG       27  27 100 S7        29.97S VSB<1/4 WCI  19
BOONE *        CLOUDY    23  23 100 SW7       29.92S FOG     WCI  15
CHARITON *     FOG       30  30 100 SW6       29.98S VSB 1   WCI  24
DES MOINES     CLOUDY    30  29  96 S9        29.96S FOG     WCI  22
GRINNELL*      CLEAR     25  24  96 W8        29.96S FOG     WCI  16
KNOXVILLE *    CLOUDY    30  30 100 SW7       29.96S FOG     WCI  23
MARSHALLTOWN   CLEAR     23  22  96 SW7       29.93F FOG     WCI  15
NEWTON *       FOG       25  25 100 SW7       29.96F VSB<1/4 WCI  17
PELLA *        FOG       29  29  97 W6        29.99R VSB 1/2 WCI  23
PERRY *        FOG       24  23  96 S6        29.93F VSB 3/4 WCI  17
$$

IAZ004>006-015-016-023>025-035-036-181400-
   NORTH CENTRAL IOWA

CITY           SKY/WX    TMP DP  RH WIND       PRES   REMARKS
ALGONA *       CLOUDY    21  21 100 S10       29.86S FOG     WCI  10
CLARION *      CLOUDY    19  19 100 S8        29.90S FOG     WCI   9
ESTHERVILLE    CLOUDY    22  21  96 S9        29.83S WCI  12
FORT DODGE *   CLOUDY    22  20  92 S8        29.90F FOG     WCI  12
MASON CITY     MOCLDY    20  19  96 S6        29.89S FOG     WCI  12
FOREST CITY *    N/A     21  21 100 S3        29.87F FOG
WEBSTER CITY * CLOUDY    19  18  93 S7        29.89S FOG     WCI  10
IOWA FALLS *     N/A     22  21  95 SW3       29.92S FOG
$$

IAZ007>011-017>019-026>030-037>042-050>054-066-181400-
   NORTHEAST IOWA

CITY           SKY/WX    TMP DP  RH WIND       PRES   REMARKS
CEDAR RAPIDS   CLOUDY    26  25  96 W8        29.96R FOG     WCI  18
CLINTON *      MOCLDY    32  31  96 W8        29.96R FOG     WCI  25
DECORAH *      CLOUDY    28  28 100 W6        29.88S FOG     WCI  22
DUBUQUE        CLOUDY    31  29  92 W13       29.92R FOG     WCI  21
MONTICELLO *   CLOUDY    32  30  93 W9        29.94R FOG     WCI  24
OELWEIN *      CLOUDY    28  28 100 SW7       29.92F FOG     WCI  21
WATERLOO       PTCLDY    26  24  92 SW7       29.93F FOG     WCI  18
$$

IAZ064-065-067-068-078-181400-
   EAST CENTRAL IOWA

CITY           SKY/WX    TMP DP  RH WIND       PRES   REMARKS
DAVENPORT      CLOUDY    35  34  96 W8        29.98R FOG     WCI  29
IOWA CITY      CLEAR     31  28  89 W6        29.99R WCI  25
MT. PLEASANT * CLOUDY    40  40 100 W8        29.98R FOG     WCI  34
MUSCATINE *    CLOUDY    37  36  93 W6        29.98R WCI  33
QUAD CITIES    CLOUDY    38  37  97 W9        29.96R FOG     WCI  31
$$

IAZ062-063-075>077-085>089-095>099-181400-
   SOUTHEAST IOWA

CITY           SKY/WX    TMP DP  RH WIND       PRES   REMARKS
BURLINGTON     CLOUDY    45  43  93 SW10      29.97R
FAIRFIELD *    CLOUDY    36  36 100 W9        29.98R FOG     WCI  29
FORT MADISON * CLOUDY    45  43  93 SW9       29.98S
KEOKUK *       CLOUDY    45  43  93 SW13G18   29.98S
OSKALOOSA *      N/A     30  29  96 W9        29.99R FOG     WCI  22
OTTUMWA        MOCLDY    33  30  88 W10       29.99R FOG     WCI  25
WASHINGTON *   PTCLDY    34  34 100 W8        29.99R FOG     WCI  27
$$

ABBREVIATIONS USED IN REMARKS
   TC - TEMPERATURES IN CELSIUS
  WCI - WIND CHILL INDEX
   HX - HEAT INDEX
  VSB - VISIBILITY
$$




USA.gov is the U.S. government's official web portal to all federal, state and local government web resources and services.